CZ-6A DEB

Satellite information

Favourite Embed

Satellite Type and Status

DEBRISIN ORBIT

Key statistics

Satellite CZ-6A DEB at a glance.

Uptime

1081

Days in orbit

Revolutions

≈ 14.2

Per day

Orbit

SSO

Sun Synchronous Orbit

Inclination

98.8

Latest

Satellite identification and parameters

Extended collection of information and parameters for CZ-6A DEB.

Object identification

Identified? True

Debris? True

Object name: CZ-6A DEB

International designator: 2022-151XW

Object number (NORAD): 55524

Object ID (CCSDS): 55524

Country: PEOPLES REPUBLIC OF CHINA (PRC)

Current information (Y/N): Y

RCS size: SMALL

Orbital parameters

Period: 101.763 minutes

Inclination: 98.848 deg

SMA: 7220.27 km

Apoapsis: 880.727 km

Periapsis: 803.543 km

RAAN: 300.8426 deg

Eccentricy: 0.00534494

Argument of periapsis: 279.2569 deg

Mean anomaly: 80.2562 deg

Mean motion: 14.15052655 rev/day

Mean motion (dot): 0.00004048 rev/day2

B* drag term: 0.0020824191 1/REarth

Two-line elements (TLE)

Creation date: Oct. 26, 2025, 2:54 a.m.

Reference frame: TEME

Reference center: EARTH

Epoch: Oct. 25, 2025, 10:29 p.m. UTC

TLE line 0: 0 CZ-6A DEB

TLE line 1: 1 55524U 22151XW 25298.93699076 .00004048 00000-0 20824-2 0 9991

TLE line 2: 2 55524 98.8480 300.8426 0053449 279.2569 80.2562 14.15052655146703

Live tracking on map

Real-time ground track for satellite CZ-6A DEB.

In-orbit conjunctions

A list of the most updated potential collisions computed for object CZ-6A DEB.

Target Orbit TCA Probability of collision Miss distance Type
FENGYUN 1C DEB SSO 2025-08-12 18:51:26 0.0001068689 179.0 (m) DEBRIS
SCOUT G-1 DEB LEO 2025-01-06 01:43:49 0.0002321963 26.0 (m) DEBRIS
SL-3 DEB LEO 2024-10-03 05:04:31 0.0001524965 118.0 (m) DEBRIS

Associated space launch

Chinese satellite reported for atmospheric/ocean/environmental/spatial parameter research purposes, details TBD.

CZ-6A DEB was lifted into orbit during the mission ‘Long March 6A | Yunhai 3’, on board a Long March 6A space rocket.

The launch took place on Nov. 11, 2022, 10:52 p.m. from Launch Complex 9A.

For more information about the launch, click the button.

Launch to space Long March 6A | Yunhai 3
Long March 6A | Yunhai 3

Agency: N/A

Status: Launch Successful

Launch date: Nov. 11, 2022, 10:52 p.m. UTC

Rocket: Long March 6A

Launch pad: Launch Complex 9A

Location: Taiyuan Satellite Launch Center, People's Republic of China

...

Latest news about this satellite

There are no fresh news available about this satellite. Check back as we update our databases every day.


Newsletter sign-up

Weekly statistics, charts and insights to help you stay on top of the space industry.